2020 JU1
ephemeris date magn radius delta ra dec elong phase
Today15 Oct 202527.01.128 AU2.024 AU14h33m-13°56'18.9°16.7°
2020 JU1 - 2025-10-15
astro.vanbuitenen.nl


 
-1 year
-1 month
-1 day
Now
+1 day
+1 month
+1 year

The interactive orbit chart above shows the body's path through the solar system and its position at the given date. Green and blue lines are shown perpendicular to the ecliptic plane: Green if the path is above the ecliptic plane, blue if it is below. (Left-click and drag to rotate the view; Right-click and drag to move the view; Use scroll wheel to zoom in our out.)

The orbital elements of 2020 JU1 are:

            e (Eccentricity)                : 0.3270358
            a (Semimajor axis)              : 1.4819546
            i (Inclination)                 : 2.04881
            Ω (Longitude of ascending node) : 168.01675
            ω (Argument of perihelion)      : 127.11462
            M (Mean anomaly)                : 240.65309
            Epoch                           : 2025 May 05

            L (Longitude of perihelion)     : 115.14900
            B (Latitude of perihelion)      : 1.63366
            P (Orbital period in years)     : 1.80            
        

The light curve chart below shows the estimated development of the minor planet's magnitude.


The all-sky chart below shows the path of the minor planet over the same period as the light curve. The current position is marked yellow.





The following chart shows the path of the minor planet in the next few days. The field of view is optimized for (~10x50) binoculars and finderscopes. A more printer-friendly version of the same chart can be found below.




Ephemerides:
Date       Time       RA (2000)    DEC (2000)    delta   radius  elong  phase   PA    magn
2025-10-15 00:00 UT   14 33 27.9   -13 56 17     2.024    1.128   18.9   16.7   105   27.0 
2025-10-15 13:26 UT   14 35 27.5   -14 05 38     2.022    1.126   18.9   16.7   105   27.0 
2025-10-16 00:00 UT   14 37 01.9   -14 12 57     2.020    1.124   18.8   16.7   105   27.0 
2025-10-17 00:00 UT   14 40 37.5   -14 29 28     2.017    1.120   18.8   16.6   105   27.0 
2025-10-18 00:00 UT   14 44 14.6   -14 45 52     2.013    1.116   18.7   16.6   104   26.9 
2025-10-19 00:00 UT   14 47 53.2   -15 02 08     2.009    1.112   18.6   16.6   104   26.9 
2025-10-20 00:00 UT   14 51 33.4   -15 18 14     2.006    1.108   18.6   16.6   104   26.9 
2025-10-21 00:00 UT   14 55 15.2   -15 34 11     2.002    1.104   18.5   16.6   103   26.9 
2025-10-22 00:00 UT   14 58 58.5   -15 49 58     1.998    1.100   18.4   16.6   103   26.9 
2025-10-23 00:00 UT   15 02 43.3   -16 05 35     1.995    1.096   18.4   16.6   103   26.9 
2025-10-24 00:00 UT   15 06 29.8   -16 21 01     1.991    1.093   18.3   16.6   103   26.9 


    Terminology:
            
    delta:  distance between minor planet and earth in AU
    radius: distance between minor planet and sun in AU
    magn:   magnitude (brightness) estimate    
    ra:     right ascension in hours (24h = 360deg)
    dec:    declination in degrees
    elong:  elongation in degrees (angle sun-earth-minor planet)    
    phase:  phase angle in degrees (angle sun-minor planet-earth)        
    AU:     Astronomical Unit (mean distance between earth and sun: 149597870.7 km
    

Orbital elements provided by the MPC (Minor Planet Center).
Calculations by a modified version of AAPlus, a C# implementation of the AA+ project by PJ Naughter from the algorithms presented in the book "Astronomical Algorithms" by Jean Meeus.
NGC2000 dso catalog and star labels from VizieR as provided by the Strasbourg astronomical Data Center.
Tycho2 catalog from the ESO archive.